カタログに戻る

SL-16 DEB

運用中LEO
NORAD 19126·DEBRIS·🇷🇺 Russia

打ち上げ May 15, 1988 から Baikonur Cosmodrome

Loading…

次のパス (今後24時間)

TLE

最新Source: Space-Track

元期: Sep 14, 2026, 09:13 UTC

1 19126U 88039D   26257.38453855  .00000032  00000-0  66426-4 0  9993
2 19126  71.0291 249.8855 0183100 190.5037 241.1244 13.77963511926132

AllMySatでSL-16 DEBをリアルタイム追跡

Download on the App Store